This is the latest recevied weather packets stored in our database for station/object K7MT-WX. If no packets are shown the sender has not sent any weather packets the latest 10 day(s).
| Time | Temp. | Humidity | Pressure | Rain* | Wind** | Luminosity | Snow |
|---|---|---|---|---|---|---|---|
| 1777803370 | 6.11° C | 77% | 1015.9 hPa | 0 mm | - | - | - |
| 1777802470 | 6.67° C | 77% | 1015.8 hPa | 0 mm | - | - | - |
| 1777801570 | 7.22° C | 77% | 1015.8 hPa | 0 mm | - | - | - |
| 1777800670 | 7.78° C | 75% | 1015.7 hPa | 0 mm | - | - | - |
| 1777799770 | 8.33° C | 72% | 1016 hPa | 0 mm | - | - | - |
| 1777798870 | 8.33° C | 71% | 1015.7 hPa | 0 mm | - | - | - |
| 1777797970 | 8.33° C | 70% | 1015.6 hPa | 0 mm | - | - | - |
| 1777797040 | 8.33° C | 73% | 1015.8 hPa | 0 mm | - | - | - |
| 1777796140 | 8.33° C | 72% | 1015.9 hPa | 0 mm | - | - | - |
| 1777795240 | 8.33° C | 72% | 1015.9 hPa | 0 mm | - | - | - |
| 1777794340 | 8.89° C | 71% | 1015.8 hPa | 0 mm | - | - | - |
| 1777793440 | 9.44° C | 69% | 1015.6 hPa | 0 mm | - | - | - |
| 1777792540 | 8.89° C | 69% | 1016.1 hPa | 0 mm | - | - | - |
| 1777791640 | 8.89° C | 70% | 1015.9 hPa | 0 mm | - | - | - |
| 1777790740 | 8.89° C | 72% | 1015.7 hPa | 0 mm | - | - | - |
| 1777789840 | 9.44° C | 69% | 1015.7 hPa | 0 mm | - | - | - |
| 1777788940 | 9.44° C | 66% | 1015.4 hPa | 0 mm | - | - | - |
| 1777788040 | 9.44° C | 64% | 1015.4 hPa | 0 mm | - | - | - |
| 1777787140 | 8.89° C | 65% | 1015.3 hPa | 0 mm | - | - | - |
| 1777786240 | 9.44° C | 63% | 1015.3 hPa | 0 mm | - | - | - |
| 1777785340 | 10° C | 62% | 1015.3 hPa | 0 mm | - | - | - |
| 1777784440 | 10° C | 61% | 1015.3 hPa | 0 mm | - | - | - |
| 1777783540 | 10.56° C | 61% | 1015.2 hPa | 0 mm | - | - | - |
| 1777782640 | 11.11° C | 58% | 1015.1 hPa | 0 mm | - | - | - |
| 1777781740 | 11.67° C | 55% | 1015.2 hPa | 0 mm | - | - | - |
* Rain latest hour (hover to see other rain measurements)
** Current wind speed in m/s (hover to see current wind gust speed)